User: anonymous   Login
Location: Newark
(39.6867°N, 100.6772°W)
Time: 07:26:44
(UTC+00:00)
Language:

Explorer 7 - Orbit

View from above orbital plane
View from above orbital plane
View from above satellite
View from above satellite

Ground track
Ground track

The orbit data is extracted from the following two-line orbital elements,

1    22U 59009A   19295.88343783 +.00000092 +00000-0 +30410-4 0  9990
2    22 050.2825 141.2933 0140161 067.3484 294.2216 14.94962026434680
Epoch (UTC): 22 October 2019 21:12:09
Eccentricity: 0.0140161
inclination: 50.2825°
perigee height: 485 km
apogee height: 680 km
right ascension of ascending node: 141.2933°
argument of perigee: 67.3484°
revolutions per day: 14.94962026
mean anomaly at epoch: 294.2216°
orbit number at epoch: 43468

The dashed part of the orbit path shows where the satellite is in the earth's shadow,  

DLR